Regional Weather Roundup
Issued by NWS

Home | Current Version | Previous Version | Graphics & Text | Print | Product List | Glossary On
Versions: 1 2 3 4 5 6 7 8 9 10 11 12 13 14 15 16 17 18 19 20 21 22 23 24 25 26 27 28 29 30 31 32 33 34 35 36 37 38 39 40 41 42 43 44 45 46 47 48 49 50
000
ASUS45 KTFX 221510
RWRMT
MONTANA REGIONAL WEATHER ROUNDUP
NATIONAL WEATHER SERVICE GREAT FALLS MT
900 AM MDT FRI JUL 22 2016

NOTE: "FAIR" INDICATES FEW OR NO CLOUDS BELOW 12000 FEET WITH NO
SIGNIFICANT WEATHER AND/OR OBSTRUCTIONS TO VISIBILITY.

MTZ001>007-043-221600-
WEST OF THE DIVIDE

CITY           SKY/WX    TMP DP  RH WIND       PRES   REMARKS
KALISPELL      SUNNY     72  46  39 N14       29.98R
MISSOULA       SUNNY     64  48  56 CALM      30.03S
BUTTE          SUNNY     63  39  41 NW3       30.14S
MULLAN PASS    SUNNY     58  41  53 CALM      30.15R
ANACONDA         N/A     70  41  35 S8        30.08F
DEER LODGE       N/A     64  45  48 CALM      30.10S
EUREKA           N/A     64  46  52 E3        30.02S
HAMILTON         N/A     66  46  48 CALM      30.03R
LIBBY            N/A     63  54  72 CALM      30.01S
PLAINS           N/A     65  46  50 CALM      30.00R
RONAN            N/A     70  53  54 SW1       30.04S
$$

MTZ008-052>055-221600-
SOUTHWEST MONTANA

CITY           SKY/WX    TMP DP  RH WIND       PRES   REMARKS
BOZEMAN        MOSUNNY   72  47  40 SE6       30.08F
DILLON         MOSUNNY   66  44  45 SW5       30.12S
W YELLOWSTONE  SUNNY     66  37  34 SE3       30.31S
ENNIS          MOSUNNY   75  39  27 S9        30.19R
THREE FORKS      N/A     67  29  24 CALM      30.06F
TWIN BRIDGES     N/A     67  39  35 SE2       30.08S
$$

MTZ009-010-012-014-046-048-049-054-221600-
EAST SLOPES AND CENTRAL MONTANA

CITY           SKY/WX    TMP DP  RH WIND       PRES   REMARKS
CUT BANK       SUNNY     70  44  39 N14       30.04F
GREAT FALLS    SUNNY     71  41  33 SW5       30.01S
MALMSTROM AFB  CLOUDY    68  43  41 S2        30.01S
HELENA         CLOUDY    73  40  30 N3        30.03F
CHOTEAU          N/A     73  39  29 NE6       30.04S
CONRAD           N/A     68  51  54 W7        30.04S
$$

MTZ011-013-016-021-045-047-050-051-221600-
NORTH CENTRAL MONTANA

CITY           SKY/WX    TMP DP  RH WIND       PRES   REMARKS
HAVRE          SUNNY     75  57  53 NE14      29.96F
LEWISTOWN      SUNNY     79  54  41 E18G25    30.03S
N BAR RANCH      N/A     73  54  49 E9        30.10F
CHINOOK          N/A     72  55  56 E13       29.98F
$$

MTZ017>020-022>027-061-062-221600-
NORTHEAST MONTANA

CITY           SKY/WX    TMP DP  RH WIND       PRES   REMARKS
GLASGOW        CLOUDY    69  56  62 SE14      30.01F
JORDAN           N/A     78  54  43 E15G21    30.02F
SIDNEY         SUNNY     76  62  62 NE8       30.05R
WOLF POINT     CLOUDY    76  56  49 E15       30.04F
PLENTYWOOD       N/A     73  61  64 CALM      30.09S
POPLAR           N/A     72  57  60 E8        30.06F
SCOBEY           N/A     65  55  69 S1        30.02F
$$

MTZ028>42-056>058-221600-
SOUTHCENTRAL AND SOUTHEAST MONTANA

CITY           SKY/WX    TMP DP  RH WIND       PRES   REMARKS
BAKER          SUNNY     77  67  71 SE16      30.05F
BILLINGS       CLOUDY    73  46  38 NW3       30.03S
LIVINGSTON     PTSUNNY   63  44  50 CALM      30.10F
MILES CITY     SUNNY     79  57  46 NE12      30.00F
EKALAKA          N/A     83  55  37 E9        30.04S
FORSYTH          N/A     77  57  50 NE7       30.00R
LAUREL           N/A     73  46  38 W3        30.03R
ROUNDUP          N/A     71  55  56 N1        29.95S
$$

REGIONAL REPORTS...DAKOTAS

CITY           SKY/WX    TMP DP  RH WIND       PRES   REMARKS
WILLISTON      CLOUDY    78  52  40 NE9       30.07R
MINOT          SUNNY     79  58  48 VRB3      30.06S
DICKINSON      MOSUNNY   73  68  84 SE12      30.03F
BEACH            N/A     75  72  88 SE7       30.08R
CROSBY           N/A     68  63  83 CALM      30.11S
WATFORD CITY     N/A     79  48  34 E20       30.05R
BISMARCK       MOSUNNY   78  69  73 E10       30.03S
GRAND FORKS    SUNNY     80  63  55 N8        30.01R
FARGO          SUNNY     83  67  58 CALM      30.01S
BUFFALO SD       N/A     73  67  81 NE18      29.99F
RAPID CITY     SUNNY     84  65  52 SE10      30.05S
$$

REGIONAL REPORTS...WYOMING/IDAHO/WASHINGTON

CITY           SKY/WX    TMP DP  RH WIND       PRES   REMARKS
GILLETTE       SUNNY     87  41  19 S20G28    30.09S
SHERIDAN       SUNNY     77  44  30 CALM      30.05S
BUFFALO WY     SUNNY     92  40  16 SW13      30.11F
CODY           PTSUNNY   79  39  24 SW6       30.15S
YELLOWSTONE LA   N/A     65  41  41 VRB3      30.42R
IDAHO FALLS    MOSUNNY   76  40  27 S13       30.15R
SALMON         CLOUDY    59  48  67 CALM      30.07R
BOISE          SUNNY     77  42  28 NW12      30.11R
SPOKANE        PTSUNNY   71  48  43 W23G30    30.03R
$$

REGIONAL REPORTS...ALBERTA

CITY           SKY/WX    TMP DP  RH WIND       PRES   REMARKS
EDMONTON       SUNNY     66  54  63 S14       29.99F
CALGARY        PTSUNNY   61  52  72 NW3       30.05F
LETHBRIDGE     PTSUNNY   61  52  72 W10       30.02F
MEDICINE HAT   PTSUNNY   70  52  52 W7        30.02R
WATERTON GATE    N/A     64  50  59 W13G20      N/A
CARDSTON         N/A     64  52  63 W3          N/A
MILK RIVER       N/A     68  50  52 NW13        N/A
ONEFOUR          N/A     73  46  38 E15         N/A
$$

REGIONAL REPORTS...SASKATCHEWAN

CITY           SKY/WX    TMP DP  RH WIND       PRES   REMARKS
SWIFT CURRENT  SUNNY     70  55  60 E13       30.05F
REGINA         MOSUNNY   72  61  68 S5        30.07F
SASKATOON      MOSUNNY   66  55  68 VRB2      30.08S
CYPRESS HILLS    N/A     68  43  40 SE9         N/A
VAL MARIE        N/A     75  52  43 SE12G18     N/A
ROCKGLEN         N/A     70  55  60 NE3         N/A
ASSINIBOIA       N/A     63  57  82 S5          N/A
$$



USA.gov is the U.S. government's official web portal to all federal, state and local government web resources and services.